When you browse on this site, cookies collect data to enhance your experience and personalize the content and advertising you see.
Visit our Privacy Policy to learn more. By continuing to use the site, you agree to this use of cookies and data.
  • In Hungary
  • List of Countries
  • For 7 days
  • Water Temperature
  • Weather Map
  • News
  • Weather Widgets
  • user-avatar
    Login

    Hourly Weather Bantval

    Today, 23 February, Sunday

    Time Temperature Precipitation Wind Pressure Humidity
    00:00 +24°C° 0 mm 1 mps 757 mmHg 77%
    01:00 +24°C° 0 mm 1 mps 756 mmHg 74%
    02:00 +24°C° 0 mm 1 mps 756 mmHg 71%
    03:00 +24°C° 0 mm 1 mps 756 mmHg 68%
    04:00 +24°C° 0 mm 1 mps 756 mmHg 65%
    05:00 +24°C° 0 mm 1 mps 756 mmHg 66%
    06:00 +25°C° 0 mm 1 mps 757 mmHg 64%
    07:00 +27°C° 0 mm 1 mps 757 mmHg 63%
    08:00 +29°C° 0 mm 2 mps 757 mmHg 61%
    09:00 +32°C° 0 mm 1 mps 757 mmHg 49%
    10:00 +36°C° 0 mm 1 mps 757 mmHg 38%
    11:00 +41°C° 0 mm 1 mps 758 mmHg 26%
    12:00 +41°C° 0 mm 2 mps 756 mmHg 27%
    13:00 +40°C° 0 mm 3 mps 755 mmHg 28%
    14:00 +41°C° 0 mm 4 mps 754 mmHg 28%
    15:00 +38°C° 0 mm 4 mps 754 mmHg 36%
    16:00 +36°C° 0 mm 4 mps 753 mmHg 44%
    17:00 +34°C° 0 mm 2 mps 754 mmHg 52%
    18:00 +31°C° 0 mm 1 mps 754 mmHg 64%
    19:00 +28°C° 0 mm 1 mps 755 mmHg 76%
    20:00 +24°C° 0 mm 0 mps 755 mmHg 88%
    21:00 +26°C° 0 mm 1 mps 756 mmHg 88%
    22:00 +25°C° 0 mm 1 mps 756 mmHg 89%
    23:00 +25°C° 0 mm 1 mps 756 mmHg 89%

    Tomorrow, 24 February, Monday

    Time Temperature Precipitation Wind Pressure Humidity
    00:00 +24°C° 0 mm 1 mps 756 mmHg 86%
    01:00 +24°C° 0 mm 1 mps 755 mmHg 83%
    02:00 +24°C° 0 mm 1 mps 755 mmHg 80%
    03:00 +24°C° 0 mm 1 mps 755 mmHg 77%
    04:00 +23°C° 0 mm 1 mps 755 mmHg 73%
    05:00 +23°C° 0 mm 1 mps 755 mmHg 69%
    06:00 +25°C° 0 mm 1 mps 755 mmHg 66%
    07:00 +26°C° 0 mm 2 mps 756 mmHg 62%
    08:00 +28°C° 0 mm 2 mps 756 mmHg 59%
    09:00 +32°C° 0 mm 2 mps 756 mmHg 48%
    10:00 +35°C° 0 mm 1 mps 756 mmHg 36%
    11:00 +40°C° 0 mm 1 mps 755 mmHg 25%
    12:00 +40°C° 0 mm 2 mps 755 mmHg 27%
    13:00 +40°C° 0 mm 3 mps 754 mmHg 29%
    14:00 +40°C° 0 mm 5 mps 753 mmHg 31%
    15:00 +37°C° 0 mm 4 mps 752 mmHg 40%
    16:00 +35°C° 0 mm 4 mps 752 mmHg 49%
    17:00 +33°C° 0 mm 3 mps 752 mmHg 59%
    18:00 +30°C° 0 mm 2 mps 753 mmHg 70%
    19:00 +28°C° 0 mm 1 mps 754 mmHg 81%
    20:00 +24°C° 0 mm 0 mps 754 mmHg 92%
    21:00 +25°C° 0 mm 1 mps 755 mmHg 93%
    22:00 +25°C° 0 mm 1 mps 755 mmHg 93%
    23:00 +24°C° 0 mm 1 mps 755 mmHg 94%

    Day after tomorrow, 25 February, Tuesday

    Time Temperature Precipitation Wind Pressure Humidity
    00:00 +24°C° 0 mm 1 mps 755 mmHg 94%
    01:00 +24°C° 0 mm 1 mps 754 mmHg 94%
    02:00 +23°C° 0 mm 1 mps 754 mmHg 93%
    03:00 +23°C° 0 mm 1 mps 754 mmHg 92%
    04:00 +23°C° 0 mm 1 mps 753 mmHg 91%
    05:00 +22°C° 0 mm 1 mps 753 mmHg 90%
    06:00 +24°C° 0 mm 1 mps 754 mmHg 80%
    07:00 +26°C° 0 mm 1 mps 755 mmHg 70%
    08:00 +28°C° 0 mm 1 mps 755 mmHg 60%
    09:00 +32°C° 0 mm 1 mps 755 mmHg 50%
    10:00 +35°C° 0 mm 1 mps 755 mmHg 41%
    11:00 +39°C° 0 mm 2 mps 755 mmHg 31%
    12:00 +39°C° 0 mm 3 mps 754 mmHg 33%
    13:00 +38°C° 0 mm 4 mps 753 mmHg 36%
    14:00 +39°C° 0 mm 5 mps 752 mmHg 38%
    15:00 +36°C° 0 mm 4 mps 752 mmHg 45%
    16:00 +35°C° 0 mm 4 mps 751 mmHg 52%
    17:00 +33°C° 0 mm 3 mps 751 mmHg 58%
    18:00 +30°C° 0 mm 2 mps 752 mmHg 68%
    19:00 +28°C° 0 mm 1 mps 753 mmHg 78%
    20:00 +24°C° 0 mm 0 mps 753 mmHg 87%
    21:00 +23°C° 0 mm 0 mps 754 mmHg 90%
    22:00 +23°C° 0 mm 0 mps 754 mmHg 92%
    23:00 +22°C° 0 mm 0 mps 754 mmHg 94%

    26 February, Wednesday

    Time Temperature Precipitation Wind Pressure Humidity
    00:00 +24°C° 0 mm 1 mps 754 mmHg 94%
    01:00 +24°C° 0 mm 1 mps 754 mmHg 95%
    02:00 +23°C° 0 mm 1 mps 753 mmHg 96%
    03:00 +23°C° 0 mm 1 mps 753 mmHg 96%
    04:00 +23°C° 0 mm 1 mps 753 mmHg 96%
    05:00 +23°C° 0 mm 1 mps 753 mmHg 96%
    06:00 +25°C° 0 mm 1 mps 754 mmHg 88%
    07:00 +26°C° 0 mm 1 mps 755 mmHg 80%
    08:00 +28°C° 0 mm 1 mps 755 mmHg 73%
    09:00 +32°C° 0 mm 1 mps 755 mmHg 59%
    10:00 +35°C° 0 mm 1 mps 755 mmHg 45%
    11:00 +40°C° 0 mm 1 mps 755 mmHg 32%
    12:00 +39°C° 0 mm 3 mps 754 mmHg 34%
    13:00 +38°C° 0 mm 4 mps 753 mmHg 36%
    14:00 +39°C° 0 mm 5 mps 752 mmHg 38%
    15:00 +36°C° 0 mm 4 mps 752 mmHg 44%
    16:00 +35°C° 0 mm 4 mps 752 mmHg 49%
    17:00 +33°C° 0 mm 3 mps 752 mmHg 54%
    18:00 +30°C° 0 mm 2 mps 753 mmHg 62%
    19:00 +28°C° 0 mm 2 mps 753 mmHg 70%
    20:00 +26°C° 0 mm 1 mps 754 mmHg 78%
    21:00 +25°C° 0 mm 1 mps 754 mmHg 81%
    22:00 +25°C° 0 mm 1 mps 754 mmHg 83%
    23:00 +24°C° 0 mm 1 mps 755 mmHg 86%

    27 February, Thursday

    Time Temperature Precipitation Wind Pressure Humidity
    00:00 +24°C° 0 mm 1 mps 754 mmHg 88%
    01:00 +23°C° 0 mm 1 mps 754 mmHg 89%
    02:00 +23°C° 0 mm 1 mps 753 mmHg 91%
    03:00 +23°C° 0 mm 1 mps 753 mmHg 91%
    04:00 +23°C° 0 mm 1 mps 753 mmHg 91%
    05:00 +22°C° 0 mm 1 mps 753 mmHg 91%
    06:00 +25°C° 0 mm 1 mps 754 mmHg 82%
    07:00 +27°C° 0 mm 1 mps 755 mmHg 72%
    08:00 +29°C° 0 mm 1 mps 755 mmHg 63%
    09:00 +31°C° 0 mm 2 mps 755 mmHg 54%
    10:00 +35°C° 0 mm 2 mps 755 mmHg 45%
    11:00 +38°C° 0 mm 3 mps 755 mmHg 37%
    12:00 +38°C° 0 mm 3 mps 754 mmHg 38%
    13:00 +38°C° 0 mm 4 mps 753 mmHg 39%
    14:00 +37°C° 0 mm 5 mps 752 mmHg 40%
    15:00 +36°C° 0 mm 4 mps 752 mmHg 44%
    16:00 +35°C° 0 mm 4 mps 752 mmHg 48%
    17:00 +33°C° 0 mm 3 mps 752 mmHg 53%
    18:00 +30°C° 0 mm 2 mps 753 mmHg 63%
    19:00 +28°C° 0 mm 1 mps 754 mmHg 73%
    20:00 +26°C° 0 mm 1 mps 754 mmHg 83%
    21:00 +25°C° 0 mm 1 mps 755 mmHg 85%
    22:00 +25°C° 0 mm 1 mps 755 mmHg 86%
    23:00 +24°C° 0 mm 1 mps 755 mmHg 88%

    28 February, Friday

    Time Temperature Precipitation Wind Pressure Humidity
    00:00 +24°C° 0 mm 1 mps 754 mmHg 87%
    01:00 +24°C° 0 mm 1 mps 754 mmHg 86%
    02:00 +24°C° 0 mm 1 mps 753 mmHg 85%
    03:00 +24°C° 0 mm 1 mps 753 mmHg 86%
    04:00 +24°C° 0 mm 1 mps 753 mmHg 87%
    05:00 +23°C° 0 mm 1 mps 753 mmHg 87%
    06:00 +25°C° 0 mm 1 mps 754 mmHg 79%
    07:00 +27°C° 0 mm 1 mps 755 mmHg 70%
    08:00 +29°C° 0 mm 1 mps 755 mmHg 61%
    09:00 +32°C° 0 mm 1 mps 755 mmHg 53%
    10:00 +36°C° 0 mm 2 mps 755 mmHg 44%
    11:00 +38°C° 0 mm 2 mps 755 mmHg 35%
    12:00 +38°C° 0 mm 3 mps 754 mmHg 38%
    13:00 +37°C° 0 mm 4 mps 753 mmHg 41%
    14:00 +36°C° 0 mm 5 mps 752 mmHg 43%
    15:00 +35°C° 0 mm 4 mps 752 mmHg 47%
    16:00 +34°C° 0 mm 4 mps 752 mmHg 51%
    17:00 +33°C° 0 mm 3 mps 752 mmHg 55%
    18:00 +30°C° 0 mm 2 mps 752 mmHg 63%
    19:00 +28°C° 0 mm 2 mps 753 mmHg 72%
    20:00 +26°C° 0 mm 1 mps 754 mmHg 81%
    21:00 +25°C° 0 mm 1 mps 754 mmHg 83%
    22:00 +25°C° 0 mm 1 mps 754 mmHg 86%
    23:00 +24°C° 0 mm 1 mps 754 mmHg 89%
    Show more